Home > Weather > Salem > Past weeks

Flag for USA Past Weather in Salem, Oregon, USA — Yesterday and Last 2 Weeks

Now
83 °F

Sunny.


Feels Like: 83 °F
Forecast: 60 / 84 °F
Wind: 13 mph from Northwest

Location: McNary Field

Current Time: Jul 25, 2016 at 7:54:13 PM

Latest Report: Jul 25, 2016 at 6:56 PM


Visibility: 10 mi

Pressure: 30.00 "Hg

Humidity: 46%

Dew Point: 60 °F

Location of SalemLocation

Past Weather in Salem — Graph

°F

Salem Temperature Yesterday

Maximum temperature yesterday: 89 °F (at 5:56 PM)
Minimum temperature yesterday: 55 °F (at 4:56 AM)
Average temperature yesterday: 71 °F

High & Low Weather Summary for the Past Weeks

 TemperatureHumidityPressure
High89 °F (Jul 24, 5:56 PM)89% (Jul 20, 4:56 AM)30.28 "Hg (Jul 20, 4:56 AM)
Low52 °F (Jul 20, 4:56 AM)26% (Jul 20, 6:56 PM)29.92 "Hg (Jul 17, 5:56 PM)
Average67 °F61%30.09 "Hg
* Reported Jul 10 6:56 PM — Jul 25 6:56 PM, Salem, Weather by CustomWeather, © 2016

Note: Actual official high and low records may vary slightly from our data, if they occured in-between our weather recording intervals... More about our weather records

Advertising

Salem Weather History for the Previous 24 Hours

Scroll right to see more
 ConditionsComfort  
Time TempWeatherWind HumidityBarometerVisibility
6:56 PM
Mon, Jul 25
83 °FSunny.13 mph46%30.00 "Hg10 mi
5:56 PM86 °FSunny.12 mph39%29.99 "Hg10 mi
4:56 PM89 °FSunny.9 mph35%29.99 "Hg10 mi
3:56 PM87 °FSunny.N/A35%30.00 "Hg10 mi
2:56 PM86 °FSunny.8 mph36%30.01 "Hg10 mi
1:56 PM84 °FSunny.7 mph38%30.03 "Hg10 mi
12:56 PM81 °FSunny.6 mph42%30.04 "Hg10 mi
11:56 AM79 °FSunny.7 mph45%30.05 "Hg10 mi
10:56 AM76 °FSunny.3 mph52%30.06 "Hg10 mi
9:56 AM71 °FSunny.5 mph61%30.07 "Hg10 mi
8:56 AM68 °FSunny.No wind65%30.08 "Hg10 mi
7:56 AM65 °FSunny.No wind73%30.07 "Hg10 mi
6:56 AM61 °FSunny.No wind81%30.06 "Hg10 mi
5:56 AM60 °FClear.3 mph80%30.05 "Hg10 mi
4:56 AM59 °FClear.5 mph84%30.04 "Hg10 mi
3:56 AM61 °FClear.3 mph81%30.03 "Hg10 mi
2:56 AM63 °FClear.3 mph75%30.01 "Hg10 mi
1:56 AM65 °FClear.5 mph70%30.01 "Hg10 mi
12:56 AM67 °FClear.3 mph68%29.99 "Hg10 mi
11:56 PM
Sun, Jul 24
69 °FClear.8 mph63%29.98 "Hg10 mi
10:56 PM69 °FClear.6 mph63%29.97 "Hg10 mi
9:56 PM72 °FClear.7 mph61%29.96 "Hg10 mi
8:56 PM77 °FSunny.6 mph54%29.93 "Hg10 mi
7:56 PM82 °FSunny.8 mph46%29.92 "Hg10 mi
Weather by CustomWeather, © 2016

See weather overviewHow to use our weather pages